[[{"header":{"parameterUnit":"m.s-1","parameterCategory":1,"la1":30.2991,"la2":30.254,"lo1":-89.0895,"lo2":-89.0444,"dy":0.0017,"dx":0.0017,"nx":28,"ny":28,"refTime":"2024-08-23T03:00:00:Z","depth":0,"parameterNumber":2,"parameterNumberName":"U-component_of_WINDS"},"data":[0,0,0,0,0,0,0,0,0,0,0,0,0,0,0,0,0,0,0,0,0,0,0,0,0,0,0,0,0,0,0,0,0,0,0,0,0,0,0,0,0,0,0,0,0,0,0,0,0,0,0,0,0,0,0,0,0,0,0.8305,0.8305,0,0.8336,0.8336,0.8337,0.8288,0.8286,0.8284,0.8283,0.8315,0.8318,0.832,0,0,0,0,0,0,0,0,0,0,0,0,0,0.8204,0.8206,0.8305,0.8306,0.8306,0.8336,0.8336,0.8337,0.8288,0.8286,0.8284,0.8282,0.8314,0.8317,0.832,0,0,0,0,0,0,0,0,0,0,0,0,0,0.8243,0.8207,0.8305,0.8285,0.8284,0.8336,0.8336,0.8337,0.8288,0.8286,0.8283,0.8281,0.8313,0.8317,0.8321,0.8394,0,0,0.8332,0.8333,0,0,0,0,0,0,0,0,0.8241,0.8247,0.8288,0.8287,0.8285,0.8305,0.8312,0.8356,0.8289,0.8287,0.8283,0.828,0.8314,0.8317,0.8329,0.8395,0.8396,0.8332,0.8334,0.8336,0.8337,0,0,0,0,0,0,0,0.8238,0.8245,0.8317,0.8288,0.8287,0.8275,0.8277,0.832,0.8314,0.8287,0.8283,0.8288,0.8313,0.8325,0.8329,0.8397,0.8332,0.8335,0.8337,0.8339,0.8522,0.8525,0,0,0,0,0,0,0.8238,0.8243,0.8316,0.8318,0.8256,0.8279,0.8282,0.8301,0.8314,0.8313,0.829,0.8285,0.832,0.8325,0.833,0.8414,0.8336,0.8339,0.8341,0.852,0.8523,0.8526,0,0,0,0,0,0,0.8236,0.8245,0.8315,0.828,0.8288,0.8283,0.8306,0.8303,0.8316,0.8316,0.8314,0.8304,0.8319,0.8325,0.8378,0.8415,0.8341,0.8344,0.8516,0.8521,0.8524,0.8585,0,0,0,0,0,0,0.8233,0.8245,0.8272,0.8281,0.829,0.8362,0.8308,0.8306,0.8322,0.8317,0.8329,0.8328,0.8317,0.8372,0.8381,0.8419,0.8347,0.8513,0.8518,0.8523,0.858,0.8591,0.86,0,0,0,0,0,0.823,0.8289,0.8274,0.8283,0.8324,0.8364,0.837,0.8356,0.8325,0.8353,0.8353,0.8328,0.841,0.8378,0.8388,0.8427,0.8511,0.8517,0.8523,0.8575,0.8588,0.86,0,0,0,0,0,0,0.8286,0.829,0.8273,0.8337,0.835,0.8356,0.8391,0.8371,0.8394,0.8387,0.8369,0.8372,0.8428,0.8433,0.8398,0.8497,0.8455,0.8463,0.8492,0.8504,0.8514,0.8511,0.835,0,0,0,0,0,0.8305,0.8337,0.8339,0.8395,0.8403,0.8396,0.8413,0.84,0.8414,0.842,0.8423,0.8438,0.8467,0.8486,0.8513,0.858,0.8581,0.8612,0.8622,0.8631,0.8637,0.8671,0.8684,0.8546,0.8546,0.8546,0,0,0.8346,0.8352,0.8374,0.8406,0.8415,0.8449,0.8401,0.8439,0.8463,0.8426,0.8475,0.8478,0.8493,0.8553,0.8579,0.8558,0.8676,0.8638,0.8645,0.8647,0.8679,0.8692,0.8704,0.855,0.8549,0.8548,0,0,0.8437,0.8446,0.8492,0.8502,0.8516,0.8511,0.8522,0.8531,0.8531,0.858,0.8553,0.8581,0.8632,0.8643,0.8655,0.8749,0.8726,0.8759,0.8811,0.8845,0.8856,0.8865,0.8897,0.8908,0.8766,0.8766,0.8766,0,0.8486,0.8534,0.8518,0.8557,0.8572,0.8539,0.8586,0.8596,0.8619,0.863,0.8606,0.8667,0.8675,0.8736,0.8759,0.8771,0.8782,0.8756,0.8855,0.8865,0.8873,0.8903,0.8915,0.877,0.8769,0.8769,0.8768,0,0.8593,0.8627,0.8663,0.8684,0.8703,0.8746,0.8736,0.8757,0.8743,0.874,0.879,0.8798,0.8825,0.8839,0.8826,0.8897,0.8884,0.8858,0.8815,0.889,0.8918,0.893,0.8775,0.8773,0.8772,0.8771,0,0,0.8719,0.8731,0.8744,0.8752,0.8765,0.8791,0.8832,0.8858,0.8875,0.8892,0.8925,0.8968,0.8944,0.8958,0.8946,0.8976,0.9047,0.8946,0.8946,0.8963,0.9124,0.9141,0.9155,0.9033,0.9035,0.9036,0.9122,0,0.8808,0.8877,0.8864,0.8931,0.8962,0.8931,0.8967,0.8978,0.8977,0.9002,0.9001,0.903,0.8997,0.9005,0.9033,0.9032,0.9079,0.9026,0.9062,0.9063,0.9057,0.917,0.9189,0.9269,0.9133,0.9135,0.9136,0,0.892,0.894,0.9011,0.9017,0.903,0.9062,0.9083,0.9108,0.9121,0.9117,0.9132,0.9115,0.9154,0.9112,0.9166,0.9131,0.9144,0.9146,0.9149,0.915,0.9103,0.9172,0.9294,0.9305,0.9153,0.9152,0.9151,0,0.9002,0.9047,0.9094,0.9103,0.9113,0.9135,0.9141,0.915,0.9166,0.9185,0.9195,0.9219,0.9232,0.925,0.9239,0.921,0.9294,0.9252,0.9291,0.9291,0.9309,0.9307,0.9433,0.9321,0.9321,0.9321,0.9321,0,0.9102,0.9145,0.9131,0.916,0.9208,0.9192,0.924,0.9241,0.925,0.9278,0.9255,0.9282,0.9266,0.9292,0.9284,0.9328,0.9335,0.9332,0.9329,0.9333,0.9333,0.9341,0.9334,0.9324,0.9323,0.9323,0.9322,0,0.9201,0.9193,0.9242,0.9247,0.9249,0.9284,0.9288,0.9315,0.9311,0.9347,0.9355,0.935,0.9378,0.937,0.9401,0.9396,0.9451,0.9442,0.9447,0.9444,0.9483,0.9478,0.9616,0.9632,0.9512,0.9513,0.9514,0,0.9263,0.9296,0.9304,0.9321,0.9328,0.9356,0.9371,0.9357,0.9374,0.939,0.9414,0.9441,0.9461,0.9509,0.9508,0.9531,0.9521,0.9568,0.9525,0.9527,0.9519,0.9516,0.9519,0.9576,0.9577,0.9578,0.9579,0,0.9374,0.9369,0.9392,0.9414,0.9433,0.945,0.9464,0.9479,0.9466,0.9486,0.9515,0.9531,0.9563,0.9589,0.961,0.9615,0.9594,0.9593,0.9603,0.9606,0.9606,0.9604,0.9468,0.9589,0.9588,0.9588,0.9587,0.9587,0.9456,0.9482,0.9492,0.9518,0.9527,0.9541,0.9566,0.9565,0.9589,0.9613,0.9603,0.9636,0.9647,0.9673,0.9681,0.9706,0.9688,0.9703,0.9706,0.9709,0.9713,0.9604,0.971,0.9709,0.9709,0.9709,0.9709,0,0.9563,0.9568,0.9592,0.9612,0.9633,0.9612,0.9627,0.9645,0.9674,0.9686,0.9706,0.9738,0.9764,0.9764,0.9787,0.9807,0.9798,0.9813,0.9811,0.9812,0.9729,0.9717,0.982,0.982,0.982,0.982,0.982,0.982,0.9621,0.9665,0.9661,0.9708,0.9713,0.9744,0.9754,0.9766,0.9775,0.9812,0.9832,0.9833,0.9839,0.9863,0.9884,0.9884,0.9892,0.9911,0.9907,0.9829,0.9818,0.9807,0.9796,0.9914,0.9914,0.9987,0.9987,0.9988]},{"header":{"parameterUnit":"m.s-1","parameterCategory":1,"la1":30.2991,"la2":30.254,"lo1":-89.0895,"lo2":-89.0444,"dy":0.0017,"dx":0.0017,"nx":28,"ny":28,"refTime":"2024-08-23T03:00:00:Z","depth":0,"parameterNumber":3,"parameterNumberName":"V-component_of_WINDS"},"data":[0,0,0,0,0,0,0,0,0,0,0,0,0,0,0,0,0,0,0,0,0,0,0,0,0,0,0,0,0,0,0,0,0,0,0,0,0,0,0,0,0,0,0,0,0,0,0,0,0,0,0,0,0,0,0,0,0,0,1.8744,1.8743,0,1.8654,1.8653,1.8652,1.856,1.8559,1.8557,1.8556,1.8468,1.8467,1.8465,0,0,0,0,0,0,0,0,0,0,0,0,0,1.8835,1.8834,1.8744,1.8743,1.8741,1.8654,1.8653,1.8652,1.856,1.8559,1.8557,1.8556,1.8468,1.8467,1.8465,0,0,0,0,0,0,0,0,0,0,0,0,0,1.8776,1.8834,1.8744,1.8685,1.8679,1.8655,1.8653,1.8652,1.8561,1.8559,1.8557,1.8555,1.8469,1.8467,1.8465,1.8493,0,0,1.846,1.8459,0,0,0,0,0,0,0,0,1.8779,1.8773,1.8695,1.8689,1.8682,1.8616,1.8653,1.8599,1.8561,1.8606,1.8556,1.8554,1.8519,1.8513,1.85,1.8489,1.8485,1.846,1.8459,1.8458,1.8457,0,0,0,0,0,0,0,1.8784,1.8776,1.8708,1.8694,1.8686,1.8663,1.8653,1.8642,1.8574,1.8602,1.8595,1.8585,1.8515,1.8502,1.8498,1.8483,1.846,1.8458,1.8457,1.8456,1.8486,1.8487,0,0,0,0,0,0,1.8796,1.878,1.8711,1.8706,1.8727,1.8663,1.8651,1.8639,1.8574,1.8562,1.8587,1.8581,1.8506,1.85,1.8494,1.8519,1.8458,1.8456,1.8455,1.8484,1.8486,1.8488,0,0,0,0,0,0,1.8799,1.8791,1.8715,1.8741,1.8729,1.8664,1.8651,1.8639,1.8626,1.8563,1.855,1.8586,1.8505,1.8497,1.8493,1.8515,1.8455,1.8454,1.8482,1.8485,1.8487,1.8571,0,0,0,0,0,0,1.8802,1.8793,1.8802,1.8742,1.8728,1.8715,1.8652,1.8638,1.8623,1.8614,1.8559,1.8548,1.8502,1.8496,1.8491,1.8511,1.8452,1.8479,1.8483,1.8486,1.8566,1.8576,1.8585,0,0,0,0,0,1.8805,1.8831,1.8803,1.8796,1.8739,1.8716,1.8709,1.8655,1.8625,1.8634,1.8593,1.855,1.8514,1.8496,1.849,1.851,1.8478,1.8482,1.8486,1.8562,1.8574,1.8585,0,0,0,0,0,0,1.8898,1.8822,1.8791,1.8797,1.8764,1.8701,1.871,1.867,1.8645,1.8639,1.8574,1.8562,1.8565,1.8538,1.8519,1.8531,1.8489,1.8493,1.8549,1.8561,1.857,1.8576,1.8451,0,0,0,0,0,1.8919,1.8906,1.8841,1.8853,1.8837,1.8777,1.8765,1.8726,1.8689,1.8675,1.8634,1.86,1.8581,1.857,1.8549,1.8562,1.8547,1.8573,1.8582,1.8591,1.8593,1.8595,1.8605,1.8502,1.8502,1.8501,0,0,1.8962,1.8919,1.8915,1.887,1.884,1.8827,1.8766,1.8757,1.8746,1.8674,1.8666,1.8635,1.8593,1.8597,1.8597,1.8574,1.8619,1.8596,1.8603,1.8601,1.8601,1.861,1.8619,1.8504,1.8504,1.8503,0,0,1.9034,1.9002,1.9006,1.8976,1.893,1.8889,1.889,1.8833,1.8809,1.88,1.8744,1.8732,1.8701,1.8672,1.8653,1.8712,1.867,1.8707,1.8757,1.8759,1.8767,1.8774,1.8792,1.88,1.8711,1.8711,1.8711,0,1.9094,1.9073,1.9014,1.9007,1.8987,1.892,1.8923,1.8898,1.8848,1.8836,1.8811,1.8768,1.8735,1.873,1.8744,1.8732,1.873,1.8712,1.8771,1.8777,1.8783,1.8799,1.8807,1.8715,1.8715,1.8714,1.8714,0,1.9147,1.9133,1.9143,1.9093,1.9076,1.9075,1.9015,1.9004,1.8967,1.8929,1.8919,1.8877,1.8845,1.8841,1.8806,1.883,1.8817,1.8783,1.8739,1.8798,1.8812,1.8819,1.8722,1.872,1.8719,1.8718,0,0,1.9275,1.9191,1.9196,1.9171,1.9114,1.9102,1.9097,1.9064,1.9055,1.9023,1.9015,1.8989,1.8956,1.8935,1.8895,1.8898,1.8943,1.8863,1.8861,1.8877,1.8965,1.8989,1.8997,1.8916,1.8917,1.8918,1.8967,0,1.9335,1.932,1.9266,1.9267,1.9252,1.9187,1.9182,1.9147,1.9111,1.9093,1.9054,1.9035,1.8994,1.898,1.898,1.8938,1.896,1.8934,1.8908,1.8907,1.8918,1.9005,1.9032,1.908,1.8973,1.8974,1.8974,0,1.9403,1.9372,1.9372,1.9312,1.9304,1.9301,1.9264,1.9248,1.9206,1.918,1.9155,1.911,1.91,1.906,1.9045,1.9028,1.9014,1.8992,1.8993,1.8986,1.8943,1.8999,1.9094,1.9101,1.8983,1.8982,1.8982,0,1.9492,1.9451,1.9444,1.9426,1.9358,1.9356,1.9328,1.9283,1.9266,1.9235,1.9222,1.9192,1.9174,1.9151,1.9098,1.9075,1.9088,1.9044,1.9064,1.9065,1.9068,1.9068,1.916,1.9064,1.9064,1.9064,1.9064,0,1.9563,1.9565,1.9483,1.9479,1.9478,1.9416,1.9417,1.9383,1.9343,1.9331,1.9274,1.9263,1.9196,1.9177,1.9136,1.9128,1.9121,1.9099,1.9087,1.9102,1.9105,1.9091,1.9085,1.9066,1.9065,1.9065,1.9064,0,1.9662,1.9608,1.9596,1.9531,1.9515,1.9517,1.9461,1.9454,1.9414,1.9399,1.9392,1.933,1.9305,1.925,1.9212,1.9184,1.9184,1.9166,1.9198,1.919,1.9212,1.921,1.9296,1.9303,1.9206,1.9207,1.9207,0,1.971,1.9709,1.9644,1.963,1.9603,1.9584,1.9564,1.9504,1.9486,1.9437,1.9436,1.9406,1.9378,1.9342,1.9293,1.9262,1.9241,1.9273,1.9236,1.925,1.9238,1.9237,1.9236,1.9281,1.9282,1.9283,1.9284,0,1.98,1.9772,1.9746,1.9711,1.969,1.9659,1.9626,1.9619,1.955,1.9533,1.9506,1.9485,1.9443,1.9414,1.9375,1.9346,1.9303,1.9297,1.9299,1.9313,1.933,1.9318,1.9218,1.9294,1.9293,1.9293,1.9292,1.9292,1.9872,1.9867,1.9819,1.9792,1.976,1.9729,1.9718,1.9676,1.9652,1.9613,1.9579,1.9554,1.951,1.9454,1.9427,1.9406,1.9385,1.939,1.939,1.9392,1.9397,1.9336,1.94,1.9399,1.9399,1.9399,1.9398,0,1.9956,1.9921,1.9897,1.9851,1.9829,1.979,1.975,1.9735,1.9713,1.9676,1.9649,1.9617,1.9587,1.9536,1.9502,1.9495,1.9475,1.9488,1.9487,1.948,1.9419,1.9419,1.9505,1.9505,1.9505,1.9505,1.9505,1.9505,1.9996,1.9984,1.9951,1.9923,1.9888,1.9862,1.9843,1.9814,1.9783,1.9749,1.9723,1.969,1.9645,1.9607,1.9578,1.9564,1.9553,1.9572,1.9551,1.9495,1.9485,1.9475,1.9475,1.9571,1.9571,1.9613,1.9614,1.9614]}]]